TimeHST,TemperatureF,Dew PointF,Humidity,Sea Level PressureIn,VisibilityMPH,Wind Direction,Wind SpeedMPH,Gust SpeedMPH,PrecipitationIn,Events,Conditions,WindDirDegrees,DateUTC
12:53 AM,75.9,64.9,69,29.93,10.0,Calm,Calm,-,N/A,,Overcast,0,2012-12-07 10:53:00
1:53 AM,73.9,64.9,73,29.93,10.0,Calm,Calm,-,N/A,,Scattered Clouds,0,2012-12-07 11:53:00
2:53 AM,73.0,64.9,76,29.92,10.0,East,3.5,-,N/A,,Clear,90,2012-12-07 12:53:00
3:53 AM,73.0,64.0,73,29.90,10.0,East,4.6,-,N/A,,Partly Cloudy,90,2012-12-07 13:53:00
4:53 AM,73.0,63.0,71,29.91,10.0,ESE,4.6,-,N/A,,Mostly Cloudy,110,2012-12-07 14:53:00
5:53 AM,73.9,63.0,68,29.94,10.0,East,3.5,-,N/A,,Scattered Clouds,100,2012-12-07 15:53:00
6:53 AM,75.0,63.0,66,29.95,10.0,SE,5.8,-,N/A,,Overcast,130,2012-12-07 16:53:00
7:53 AM,77.0,63.0,62,29.97,10.0,SE,4.6,-,N/A,,Overcast,140,2012-12-07 17:53:00
8:53 AM,80.1,64.9,60,29.98,10.0,South,6.9,-,N/A,,Clear,180,2012-12-07 18:53:00
9:53 AM,81.0,64.9,58,29.99,10.0,Variable,4.6,-,N/A,,Clear,0,2012-12-07 19:53:00
10:53 AM,80.1,66.9,64,29.99,10.0,West,6.9,-,N/A,,Clear,260,2012-12-07 20:53:00
11:53 AM,81.0,68.0,65,29.97,10.0,WNW,6.9,-,N/A,,Clear,290,2012-12-07 21:53:00
12:53 PM,82.9,68.0,60,29.94,10.0,NW,12.7,-,N/A,,Clear,310,2012-12-07 22:53:00
1:53 PM,84.0,66.9,56,29.91,10.0,NNW,15.0,-,N/A,,Clear,330,2012-12-07 23:53:00
2:53 PM,82.9,66.0,56,29.89,10.0,NNW,13.8,-,N/A,,Clear,330,2012-12-08 00:53:00
3:53 PM,82.0,66.0,58,29.86,10.0,NNW,15.0,-,N/A,,Clear,330,2012-12-08 01:53:00
4:53 PM,81.0,64.0,56,29.86,10.0,NNW,12.7,-,N/A,,Clear,330,2012-12-08 02:53:00
5:53 PM,79.0,64.9,62,29.86,10.0,NW,9.2,-,N/A,,Clear,310,2012-12-08 03:53:00
6:25 PM,80.6,62.6,54,29.87,10.0,NNE,12.7,21.9,N/A,,Clear,20,2012-12-08 04:25:00
6:53 PM,80.1,63.0,56,29.88,10.0,ESE,11.5,-,N/A,,Clear,110,2012-12-08 04:53:00
7:53 PM,78.1,64.9,64,29.90,10.0,SE,12.7,-,N/A,,Clear,140,2012-12-08 05:53:00
8:53 PM,77.0,66.9,71,29.91,10.0,SE,8.1,-,N/A,,Clear,130,2012-12-08 06:53:00
9:53 PM,75.9,66.0,71,29.91,10.0,SE,8.1,-,N/A,,Clear,140,2012-12-08 07:53:00
10:53 PM,75.9,66.0,71,29.91,10.0,SE,6.9,-,N/A,,Clear,130,2012-12-08 08:53:00
11:53 PM,75.0,66.0,73,29.91,10.0,East,5.8,-,N/A,,Clear,100,2012-12-08 09:53:00